831  
ASUS41 KOKX 222213  
RWROKX  
 
REGIONAL WEATHER ROUNDUP  
NATIONAL WEATHER SERVICE NEW YORK NY  
500 PM EST FRI FEB 22 2019  
 
NOTE: "FAIR" INDICATES FEW OR NO CLOUDS BELOW 12,000 FEET WITH NO  
SIGNIFICANT WEATHER AND/OR S TO VISIBILITY
.  
 
NYZ071-072-176-178-NJZ106-104-222300-  
NEW YORK CITY METRO AREA  
 
CITY SKY/WX TMP DP RH WIND PRES REMARKS
 
CENTRAL PARK FAIR 43 21 41 MISG 30.38S  
BRONX LEHMAN C N/A 41 23 48 NW7 N/A  
LAGUARDIA ARPT CLOUDY 42 22 44 N13 30.36S  
QUEENS COLLEGE N/A 43 23 45 NW10 N/A  
KENNEDY INTL CLOUDY 43 24 47 N14 30.37S  
BREEZY POINT N/A 43 N/A N/A NW7 N/A  
BROOKLYN COLL N/A 43 25 49 NW8 N/A  
STATEN ISLAND N/A 43 23 45 N9 N/A  
NEWARK/LIBERTY CLOUDY 44 20 38 NW10 30.37S  
TETERBORO FAIR 43 23 45 NW13G21 30.36S  

 
 
NYZ177-179-078>081-222300-  
LONG ISLAND NEW YORK  
 
CITY SKY/WX TMP DP RH WIND PRES REMARKS
 
JONES BEACH N/A 41 N/A N/A N12 N/A  
WANTAGH N/A 43 25 49 NW8 N/A  
HEMPSTEAD N/A 43 27 52 NW5 30.39S  
MATINECOCK PT N/A 41 N/A N/A NW12 N/A  
FARMINGDALE FAIR 42 22 44 NW8 30.36S  
MACARTHUR/ISP CLOUDY 41 22 46 NW10 30.35S  
STONY BROOK N/A 39 28 65 N3 N/A  
SHIRLEY FAIR 40 20 44 N7 30.36S  
MT SINAI HARB N/A N/A N/A N/A NW1 N/A  
WESTHAMPTON FAIR 41 20 43 NW9 30.36F  
EAST HAMPTON FAIR 39 22 50 NW5 30.34F  
SOUTHOLD N/A 39 28 65 NW8 N/A WCI 34  
MONTAUK N/A 40 30 67 W6 30.34F  

 
 
NYZ052-065-067-222300-  
HUDSON VALLEY  
 
CITY SKY/WX TMP DP RH WIND PRES REMARKS
 
WHITE PLAINS FAIR 39 21 48 NW10 30.34S WCI 32  
LARCHMONT HARB N/A 41 N/A N/A NW7G14 N/A  
CROTON ON HUDS N/A 43 N/A N/A N8 N/A  
SOMERS N/A 37 23 56 NW5 N/A WCI 34  
BREWSTER N/A 36 23 60 N9 N/A WCI 29  
NEWBURGH CLOUDY 37 25 60 NW6 30.37R WCI 33  
MONTGOMERY FAIR 37 21 52 NW13 30.36S WCI 29  
OTISVILLE N/A 36 21 55 NW7 N/A WCI 30  
WARWICK N/A 37 23 56 NW7 N/A WCI 32  
SUFFERN N/A 37 23 56 N6 N/A WCI 33  
POUGHKEEPSIE FAIR 38 23 55 N6 30.37S WCI 33  
ALBANY MOCLDY 36 20 52 NW13 30.41S WCI 27  

 
 
NJZ001-105-106-008-010-013-015-019>022-104-222300-  
NEW JERSEY  
 
CITY SKY/WX TMP DP RH WIND PRES REMARKS
 
NEWARK/LIBERTY CLOUDY 44 20 38 NW10 30.37S  
TETERBORO FAIR 43 23 45 NW13G21 30.36S  
CALDWELL FAIR 42 21 43 NW9 30.38R  
SOMERVILLE FAIR 43 22 43 NW7 30.36S  
LINDEN FAIR 43 20 40 NW10 30.38R  
PERTH AMBOY N/A 43 N/A N/A NW10 N/A  
SUSSEX FAIR 38 23 55 VRB6 30.38R WCI 33  
ANDOVER N/A 39 21 48 N7 30.37R WCI 34  
TRENTON FAIR 45 23 42 NW5 30.37S  
MILLVILLE FAIR 45 27 49 CALM 30.37S  
ATLANTIC CITY FAIR 45 28 51 N3 30.37S  
WRIGHTSTOWN FAIR 43 25 49 N7 30.34  
TOMS RIVER FAIR 44 25 47 NW5 30.38S  
BELMAR FAIR 43 24 47 NW6 30.38R  

 
 
PAZ047>061-062-071-222300-  
EASTERN PENNSYLVANIA  
 
CITY SKY/WX TMP DP RH WIND PRES REMARKS
 
PHILADELPHIA CLOUDY 45 24 43 N7 30.38S  
ALLENTOWN FAIR 43 23 45 N8 30.38R  
SCRANTON FAIR 36 22 56 N10 30.39R WCI 28  

 
 
CTZ002-004>006-009-010-012-RIZ004-006-007-MAZ004-011-015-222300-  
SOUTHERN NEW ENGLAND  
 
IN CT  
 
CITY SKY/WX TMP DP RH WIND PRES REMARKS
 
BRADLEY INTL CLOUDY 39 22 50 NW8 30.35R WCI 33  
HARTFORD FAIR 40 21 46 NW8 30.36R WCI 34  
DANBURY FAIR 38 20 48 N7 30.36S WCI 33  
WTRBURY/OXFORD FAIR 36 21 54 NW10 30.34S WCI 28  
NORWALK HARBOR N/A 39 N/A N/A NW9 N/A WCI 33  
BRIDGEPORT FAIR 42 21 43 N10 30.36S  
MERIDEN FAIR 39 21 48 N9 30.35S WCI 33  
NEW HAVEN FAIR 42 22 44 NW8 30.35S  
CHESTER FAIR 39 19 45 NW8 30.33S WCI 34  
GROTON FAIR 42 20 41 N9 30.33S  
WILLIMANTIC FAIR 39 21 48 W7 30.34R WCI 34  
 
IN RI  
 
CITY SKY/WX TMP DP RH WIND PRES REMARKS
 
PROVIDENCE CLOUDY 43 20 39 NW8 30.32R  
BLOCK ISLAND FAIR 41 29 62 W7 N/A  
WESTERLY FAIR 45 23 42 NW6 30.33R  
 
IN MA  
 
CITY SKY/WX TMP DP RH WIND PRES REMARKS
 
BOSTON CLOUDY 44 22 41 NW9 30.32R  
WORCESTER FAIR 37 20 50 NW8 30.29R WCI 31  
WESTFIELD FAIR 38 20 48 NW13 30.35R WCI 30  
PROVINCETOWN FAIR 37 26 64 CALM 30.33R  
NANTUCKET FAIR 37 24 59 NE5 30.33R WCI 33  

 
 
ANZ330-335-338-340-345-350-353-355-222300-  
COASTAL MARINE OBSERVATIONS  
 
 
STATION/POSITION TIME SKY/WX TEMP WIND PRES VSBY WAVE
 
AIR SEA DIR/SP/G HT/PER  
(UTC) (F) (DEG/KT/KT) (MB) (MI) (FT/S)  
NY HARB ENTRANCE 2200 41 40 290/ 4/ 8 1028.4  
20 S FIRE ISLAND 2150 41 40 270/ 6/ 6 1028.3 2/ 8  
GREAT SOUTH BAY NOT AVBL  
23 SSW MONTAUK P 2150 40 41 290/ 12/ 14 1027.7 2/ 8  
15 E BARNEGAT LI 2200 42 N/A 2/ 8  
HUDSON CANYON NOT AVBL  
KINGS POINT 2148 40 35 30/ 5/ 6 1029.1  
EXECUTION ROCKS NOT AVBL  
WESTERN LI SOUND NOT AVBL  
CENTRAL LI SOUND NOT AVBL  
ROBBINS REEF 2148 43 330/ 11/ 15 1028.7  

 
 
>>>>>>>>>>>>>>>>>>>>>>>>>>>> KEY <<<<<<<<<<<<<<<<<<<<<<<<<<<  
> <  
> SKY/WX - SKY CONDITION/PRESENT WEATHER <  
> TMP - TEMPERATURE IN FAHRENHEIT <  
> DP - DEW POINT IN FAHRENHEIT <  
> RH - RELATIVE HUMIDITY IN PERCENT <  
> WIND - DIRECTION (FROM) AND SPEED IN MPH <  
> PRES - MEAN SEA LEVEL PRESSURE (INCHES OF HG) <  
> WCI - WIND CHILL INDEX <  
> VSB - VISIBILITY IN MILES <  
> HX - HEAT INDEX <  
> TC - TEMPERATURE IN CELSIUS <  
> VRB - VARIABLE WIND DIRECTION <  
> <  
>>>>>>>>>>>>>>>>>>>>>>>>>>>> KEY <<<<<<<<<<<<<<<<<<<<<<<<<<<  
 
 
CLICK HERE TO GO TO PREVIOUS BULLETINS.

The Nexlab NY Page
The Nexlab NJ Page
The Nexlab CT Page Main Text Page